Theta_e
334 339 344 344 345 346 346 345 345 344 342 340 340 341 340 339 338 338 340 341 339 338 337 337 336 335 334 332 331 331 332 333 333 333 333 335 336 336 335 333 332 328 334
337 340 343 345 346 346 345 344 343 343 340 339 339 339 340 339 338 338 337 338 340 337 336 335 336 335 333 332 331 330 330 331 331 330 331 331 331 331 330 329 331 329 330
338 340 340 345 345 345 344 343 343 341 339 338 338 340 340 340 339 336 336 337 339 339 336 334 335 336 334 333 332 331 331 331 330 330 330 324 325 331 330 329 328 329 331
340 338 338 343 344 344 343 342 343 341 339 338 340 340 342 339 337 334 334 336 337 338 336 336 336 336 335 334 332 329 328 328 330 328 320 323 327 332 331 330 329 327 325
337 337 338 342 344 342 341 340 341 342 339 338 338 341 337 336 336 334 332 334 338 339 339 337 337 336 334 331 329 327 328 329 328 319 315 320 321 326 331 330 328 328 328
335 336 339 342 342 341 340 340 343 342 339 339 338 338 337 336 335 335 334 332 334 337 340 338 334 331 329 329 328 329 329 329 325 318 313 323 318 326 326 328 332 331 331
333 335 337 340 341 341 340 340 341 340 339 339 338 338 338 337 335 334 334 334 332 332 331 330 329 329 329 329 329 329 329 329 322 318 315 316 322 329 329 329 329 331 332
334 336 337 335 338 340 341 342 341 340 339 338 337 336 337 338 336 335 334 333 332 332 331 330 329 329 329 330 331 330 330 328 323 320 318 319 328 330 332 333 333 333 334
335 335 335 335 335 334 336 337 338 338 338 338 338 339 340 339 338 337 336 334 334 333 332 333 332 332 332 333 333 333 330 328 322 321 323 322 329 331 333 334 335 335 335
334 334 333 333 334 334 333 331 333 334 334 335 335 333 331 332 333 332 330 333 334 334 335 334 334 335 335 335 335 332 329 327 322 322 323 324 331 331 333 335 335 334 333
332 333 333 333 333 333 333 330 329 330 330 329 330 328 327 328 331 328 326 330 333 333 333 333 334 334 332 330 329 328 327 327 326 325 324 328 331 331 333 334 333 333 332
328 330 333 332 332 332 336 331 330 331 329 328 326 325 326 329 331 331 324 325 328 328 330 332 333 331 326 323 322 324 324 324 327 326 325 330 331 332 333 333 331 331 330
329 331 332 332 332 332 332 330 330 331 329 329 329 326 327 329 329 326 323 322 321 321 322 322 323 323 322 322 322 321 322 323 325 325 324 328 331 334 334 332 333 333 332
326 329 331 331 330 330 332 329 330 330 329 328 328 328 327 326 324 323 321 321 321 322 320 320 322 322 322 323 322 322 322 323 324 325 322 322 329 332 333 333 332 331 331
326 327 330 329 329 330 330 330 329 330 329 328 328 331 330 326 325 325 325 325 324 326 327 326 325 323 322 322 323 323 322 321 326 322 319 317 325 331 331 332 331 329 329
328 327 329 329 329 329 328 328 326 328 328 328 326 325 326 325 323 324 326 328 326 328 328 326 327 325 322 323 324 324 323 322 321 317 315 314 318 323 328 329 329 328 328
327 325 325 324 325 328 327 326 326 327 324 320 318 319 320 322 324 327 327 326 326 328 329 326 323 322 321 322 319 322 322 321 317 313 311 310 310 314 319 323 324 325 325
320 319 316 318 319 319 321 324 324 320 316 313 313 312 313 315 319 321 320 319 322 323 318 319 318 322 320 318 315 319 318 315 312 309 307 306 305 305 309 313 315 318 320
316 313 312 313 315 319 320 317 313 310 309 307 307 307 307 309 311 314 312 311 316 317 314 314 313 312 313 313 316 317 313 310 307 305 303 302 301 300 300 303 305 308 312
309 310 310 311 313 317 316 312 309 306 304 303 303 304 304 305 306 307 306 306 310 309 305 305 307 310 311 311 312 313 310 307 304 301 299 297 296 295 294 293 292 294 304
306 307 308 308 310 314 313 310 308 304 301 299 300 301 301 302 303 303 302 302 304 301 300 300 303 306 306 308 306 306 305 303 300 297 296 294 293 292 290 288 288 287 288
304 304 305 306 307 311 312 312 308 304 300 298 298 297 299 300 300 300 299 299 298 298 297 297 298 301 304 303 306 305 298 298 298 294 293 291 289 288 288 286 285 285 285
301 302 303 305 306 309 308 306 303 301 299 297 296 295 296 297 297 298 297 297 296 296 295 294 294 295 297 299 298 301 302 298 297 294 292 290 288 286 285 285 284 283 283
298 299 301 304 305 308 307 305 303 302 299 298 295 294 294 295 295 295 295 294 294 293 292 293 294 292 294 291 295 296 298 300 296 289 289 289 289 286 285 284 283 282 282
296 296 298 300 302 304 307 306 305 300 296 295 294 292 291 291 292 293 292 292 292 292 291 291 290 290 290 289 288 289 292 292 293 297 288 285 286 286 286 283 282 281 281
294 294 296 298 299 302 305 303 301 296 294 293 292 290 289 289 289 290 291 290 291 291 290 289 288 288 287 287 286 286 287 288 288 289 289 287 285 283 285 284 280 280 279
Wind_Speed
3 6 10 10 10 13 13 12 15 14 13 13 13 14 15 15 15 14 13 11 13 14 13 14 14 15 14 13 12 12 11 12 12 11 11 10 10 11 11 11 10 6 9
10 7 9 9 14 15 15 15 14 12 12 12 12 13 14 15 14 14 12 10 11 13 12 12 13 13 12 11 11 10 10 10 9 6 5 8 9 9 9 9 8 6 7
11 9 8 9 13 13 15 14 12 12 12 12 12 12 12 14 13 12 11 10 10 12 12 10 10 10 10 10 9 9 9 9 8 7 3 1 2 8 8 7 6 6 6
12 9 7 10 14 13 12 11 11 12 12 12 12 11 13 12 11 11 11 9 10 9 11 9 9 9 8 7 7 8 9 10 12 7 3 1 2 6 6 6 6 5 4
11 9 9 11 14 14 12 10 8 12 12 12 12 12 11 11 11 11 10 9 7 9 10 9 7 7 6 6 6 7 8 9 9 7 2 3 2 4 5 4 2 3 4
9 8 10 12 13 14 12 11 11 12 11 11 9 9 10 10 10 9 9 9 8 9 10 8 6 5 5 5 5 6 8 9 7 4 2 1 2 4 4 5 6 4 5
8 6 8 12 12 12 12 11 11 11 10 8 5 5 9 9 9 8 7 7 7 7 6 5 4 4 4 4 5 6 7 9 6 5 2 1 2 4 4 4 4 5 7
11 7 7 10 11 10 11 10 9 9 8 6 4 2 3 9 7 6 5 4 4 3 3 3 2 1 2 3 5 6 6 7 5 5 4 3 3 4 4 5 5 6 7
9 8 6 6 7 9 9 9 8 7 6 5 4 4 7 6 5 4 2 1 1 2 2 1 2 3 4 5 6 6 7 7 4 2 2 3 5 3 4 5 6 8 9
7 7 6 5 5 5 5 7 7 7 5 5 4 4 4 3 3 2 2 3 3 3 3 3 3 6 7 7 7 8 6 6 4 4 3 3 4 3 5 6 8 7 7
6 8 6 6 5 5 5 5 7 7 6 6 5 4 3 2 4 4 4 5 5 5 5 6 6 8 7 5 7 7 7 2 4 2 2 6 4 5 7 9 7 7 7
8 8 8 7 7 6 5 6 5 4 4 4 4 3 2 4 3 4 6 6 6 6 6 7 8 9 5 3 3 5 2 3 3 3 2 1 4 8 8 7 5 6 5
11 8 8 8 7 6 5 4 3 3 4 4 6 5 5 3 4 2 1 1 2 4 3 4 5 3 4 3 4 4 4 4 3 3 6 7 8 11 11 7 9 11 9
9 10 10 8 7 7 5 5 4 3 3 3 5 6 3 2 3 3 1 2 2 2 4 4 3 4 4 5 5 5 4 3 2 3 6 9 10 11 10 10 11 15 18
10 10 11 9 9 8 7 4 4 4 4 5 4 3 4 3 3 2 2 2 2 2 2 3 3 3 4 5 4 4 5 3 5 4 4 17 17 14 13 11 11 12 16
11 10 9 9 8 7 6 5 3 3 2 4 5 4 5 4 3 3 3 3 3 2 3 3 3 3 4 3 4 4 3 4 8 7 5 9 22 20 19 17 15 13 13
10 8 8 7 5 6 5 4 4 4 5 5 4 5 5 3 5 3 2 1 2 3 3 3 4 2 3 3 5 5 6 9 8 8 6 6 8 20 20 19 19 16 15
9 9 7 6 7 7 7 5 5 5 5 4 4 3 5 5 5 3 2 2 3 3 3 3 4 3 3 3 3 5 6 6 8 8 7 6 6 6 14 20 19 16 16
12 11 9 7 8 8 7 6 7 7 5 4 4 4 5 6 5 4 4 3 3 4 4 3 2 2 2 3 4 5 6 5 6 7 9 8 7 6 6 16 19 19 15
9 8 9 7 8 8 6 6 6 6 5 4 4 4 6 5 6 5 5 5 4 3 3 3 2 3 2 3 5 6 6 6 5 5 7 7 7 8 8 9 7 9 17
7 8 7 8 7 7 4 4 3 4 3 4 4 6 5 5 5 5 3 4 4 4 3 4 2 3 4 2 4 5 6 6 6 5 4 5 8 8 9 7 5 4 5
8 7 7 7 6 4 4 4 4 3 3 3 3 5 5 5 5 5 5 4 4 3 5 5 4 2 2 4 1 2 3 0 4 5 4 5 8 5 6 7 7 7 6
8 8 7 7 6 4 7 7 6 5 3 3 2 3 3 5 5 5 5 4 5 4 4 4 4 5 1 2 5 0 2 2 3 2 5 5 6 5 4 5 6 6 5
5 6 7 6 7 5 6 7 9 4 4 3 3 3 4 5 5 5 5 5 5 4 5 4 4 3 2 3 3 3 3 2 3 3 2 4 4 5 5 4 4 4 4
6 6 6 6 5 4 5 6 5 5 3 4 4 6 5 5 5 5 5 5 5 4 4 5 5 5 3 2 1 2 2 2 2 2 4 2 3 3 4 4 4 4 4
5 6 6 6 3 3 5 6 8 9 8 6 4 4 3 3 3 5 5 5 5 4 4 4 5 6 5 4 3 4 1 0 0 1 2 2 4 3 4 4 4 4 4
Wind_Direction
143 139 140 132 124 113 112 119 106 96 90 85 84 85 84 82 80 77 70 81 87 77 78 76 74 72 69 65 64 67 65 57 51 51 51 59 60 63 56 51 44 41 55
138 137 137 132 123 113 110 104 101 96 90 86 88 91 91 89 82 76 76 71 78 94 82 81 78 76 74 68 60 58 58 51 39 19 54 32 55 58 55 53 49 46 55
132 132 128 125 124 116 113 110 108 103 98 97 97 98 98 95 84 77 79 77 79 91 94 87 84 80 73 64 51 41 40 42 30 22 204 100 55 63 61 66 56 46 42
129 124 125 124 124 112 105 108 117 116 107 105 104 107 102 92 86 85 86 86 84 93 103 97 95 87 77 62 45 32 27 24 18 52 58 106 11 48 58 45 41 38 18
126 129 136 132 125 123 121 122 129 127 117 114 105 108 102 97 94 90 88 89 68 130 117 105 103 91 66 44 34 24 20 21 32 32 36 108 44 3 3 34 10 10 357
128 134 142 139 135 133 133 126 118 138 124 126 125 126 117 109 104 100 92 89 73 76 95 94 84 66 50 39 25 13 8 14 19 11 16 67 40 11 7 359 2 330 304
129 139 142 141 141 141 137 132 125 127 130 134 127 109 132 124 118 113 106 97 90 83 82 88 81 66 44 25 8 358 352 358 360 13 17 296 337 11 9 2 340 323 323
141 148 150 147 147 145 141 136 131 130 132 137 127 90 134 142 131 126 121 117 114 109 106 103 93 51 356 342 333 329 333 348 353 359 346 279 293 349 351 336 325 321 322
141 141 139 147 151 147 143 138 135 135 136 136 101 79 94 120 129 127 135 168 188 238 226 255 251 280 291 296 300 304 316 324 335 280 287 240 272 322 332 322 327 327 334
142 142 148 148 150 147 147 140 135 133 128 128 124 121 132 154 169 182 198 241 252 262 271 272 285 273 272 282 289 293 292 306 305 272 255 243 257 304 318 316 333 356 7
155 156 158 163 169 161 156 157 151 153 157 161 171 190 192 226 222 210 228 226 242 252 256 259 258 260 276 316 314 309 308 285 285 286 195 236 250 296 312 323 345 1 17
170 176 173 176 176 170 170 161 172 174 182 195 194 198 220 221 232 211 212 227 252 267 279 279 274 285 336 306 302 311 301 289 290 265 223 269 313 302 301 318 342 360 16
179 175 181 183 176 166 163 178 193 198 176 188 207 189 212 189 198 209 244 294 294 301 290 300 307 282 271 276 287 288 289 297 310 1 26 16 348 322 321 19 36 53 51
170 183 183 186 170 178 167 184 200 204 188 168 195 192 187 73 33 5 353 302 298 291 295 283 280 281 271 261 258 268 275 276 348 65 31 6 355 329 7 43 58 76 80
177 182 187 177 178 179 186 180 193 196 202 188 192 151 113 94 63 34 347 344 326 308 309 286 261 264 276 279 276 287 285 324 95 79 58 39 34 41 47 51 64 76 87
183 183 178 180 181 169 178 179 185 164 134 71 64 60 74 101 91 52 5 38 350 338 321 316 303 284 291 306 317 304 315 72 99 88 67 49 49 44 47 49 53 60 72
188 160 157 144 148 154 146 124 94 84 84 80 76 64 71 70 72 47 26 3 333 330 339 0 3 18 26 28 30 53 73 98 95 88 76 59 46 47 52 52 48 49 65
143 141 129 123 118 111 113 101 97 82 85 81 78 64 55 58 65 60 60 20 355 39 31 19 7 35 34 45 54 78 79 78 84 82 77 71 58 55 50 54 48 39 49
145 137 130 126 117 114 102 92 89 89 82 80 75 64 47 43 41 73 52 20 21 43 28 4 7 36 42 51 86 80 68 68 82 89 82 77 71 65 59 54 47 38 38
121 123 128 128 125 121 107 97 84 77 61 52 54 49 48 40 43 58 46 33 33 49 25 5 356 18 57 104 84 75 81 79 75 80 87 84 73 62 56 53 35 22 38
121 129 135 132 138 130 126 111 92 85 66 56 54 55 53 51 49 60 63 52 46 55 33 3 340 41 37 20 109 77 56 73 82 75 72 78 80 68 69 56 50 37 22
139 131 131 131 141 144 117 106 115 129 87 96 76 61 58 59 51 63 61 53 47 61 40 23 25 9 48 20 182 133 157 124 71 75 62 69 73 70 68 63 56 43 27
142 148 142 140 132 122 120 109 89 84 84 91 61 64 44 59 53 59 60 61 50 48 46 35 18 33 37 0 41 222 163 195 124 94 67 81 85 81 72 80 67 54 38
150 133 126 124 124 125 133 128 150 152 153 163 135 110 77 60 59 56 59 58 58 47 46 31 30 35 77 33 328 17 64 90 169 172 83 99 111 102 99 88 89 67 43
139 131 118 116 114 125 147 152 146 119 111 116 115 109 84 58 55 56 59 60 59 54 51 47 38 42 36 90 36 338 358 36 61 157 171 162 87 102 99 95 78 61 31
121 114 115 119 100 102 150 152 146 139 140 135 132 117 109 78 50 49 58 61 60 60 57 54 53 52 53 58 44 32 35 76 239 137 140 156 153 118 82 70 62 51 20